User: anonymous   Login
Location: Unspecified
(0.0000°N, 0.0000°E)
Time: 12:08:12
(UTC+02:00)
Language:

Cosmos 1538 Rocket - Orbit

View from above orbital plane
View from above orbital plane
View from above satellite
View from above satellite

Ground track
Ground track

The orbit data is extracted from the following two-line orbital elements,

1 14760U 84019B   15184.84573709 -.00000005  00000-0  72474-5 0  9997
2 14760 074.0438 352.1496 0027575 025.8401 075.8607 14.35703014641060
Epoch (UTC): 03 July 2015 20:17:51
Eccentricity: 0.0027575
inclination: 74.0438°
perigee height: 753 km
apogee height: 792 km
right ascension of ascending node: 352.1496°
argument of perigee: 25.8401°
revolutions per day: 14.35703014
mean anomaly at epoch: 75.8607°
orbit number at epoch: 64106

The dashed part of the orbit path shows where the satellite is in the earth's shadow,  

DLR